Location: Staunton
(38.1490°N, 79.0720°W)
Time: 14:47:42
(UTC-04:00)

ISS - Pass Details

Date: 25 July 2017
Orbit: 400 x 408 km, 51.6° (Epoch: 21 July)

Event Time Altitude Azimuth Distance (km) Brightness Sun altitude
Rises 03:31:26 0° 316° (NW) 2,313 0.2 -24.9°
Reaches altitude 10° 03:33:39 10° 327° (NNW) 1,452 -0.8 -24.6°
Maximum altitude 03:36:37 31° 32° (NNE) 723 -2.0 -24.3°
Drops below altitude 10° 03:39:34 10° 97° (E) 1,450 -0.7 -23.9°
Sets 03:41:47 0° 108° (ESE) 2,307 0.2 -23.7°
